This is the latest recevied weather packets stored in our database for station/object KC4LZN. If no packets are shown the sender has not sent any weather packets the latest 10 day(s).
| Time | Temp. | Humidity | Pressure | Rain* | Wind** | Luminosity | Snow |
|---|---|---|---|---|---|---|---|
| 1777983220 | 21.11° C | 82% | 1017.2 hPa | 0 mm | - | 113 W/m² | - |
| 1777982916 | 20.56° C | 83% | 1017.1 hPa | 0 mm | - | 101 W/m² | - |
| 1777982612 | 20.56° C | 85% | 1016.9 hPa | 0 mm | - | 89 W/m² | - |
| 1777982311 | 20° C | 88% | 1016.7 hPa | 0 mm | - | 79 W/m² | - |
| 1777982008 | 18.89° C | 92% | 1016.8 hPa | 0 mm | - | 73 W/m² | - |
| 1777981706 | 18.89° C | 96% | 1016.6 hPa | 0 mm | - | 66 W/m² | - |
| 1777981402 | 18.33° C | 98% | 1016.7 hPa | 0 mm | - | 59 W/m² | - |
| 1777981099 | 17.78° C | 99% | 1016.6 hPa | 0 mm | - | 52 W/m² | - |
| 1777980795 | 17.78° C | 99% | 1016.7 hPa | 0 mm | - | 45 W/m² | - |
| 1777980491 | 17.22° C | 99% | 1016.8 hPa | 0 mm | - | 39 W/m² | - |
| 1777980189 | 16.67° C | 99% | 1016.7 hPa | 0 mm | - | 33 W/m² | - |
| 1777979884 | 16.67° C | 99% | 1016.3 hPa | 0 mm | - | 31 W/m² | - |
| 1777979580 | 16.11° C | 99% | 1016.5 hPa | 0 mm | - | 26 W/m² | - |
| 1777979276 | 16.11° C | 99% | 1016.2 hPa | 0 mm | - | 23 W/m² | - |
| 1777978974 | 15.56° C | 99% | 1016.2 hPa | 0 mm | - | 18 W/m² | - |
| 1777978670 | 15.56° C | 99% | 1016 hPa | 0 mm | - | 14 W/m² | - |
| 1777978365 | 15.56° C | 99% | 1016 hPa | 0 mm | - | 9 W/m² | - |
| 1777978062 | 15.56° C | 99% | 1015.9 hPa | 0 mm | - | 6 W/m² | - |
| 1777977760 | 15.56° C | 99% | 1016.1 hPa | 0 mm | - | 3 W/m² | - |
| 1777977456 | 15.56° C | 99% | 1016 hPa | 0 mm | - | 1 W/m² | - |
| 1777977154 | 15.56° C | 99% | 1016 hPa | 0 mm | - | 1 W/m² | - |
| 1777976851 | 15° C | 99% | 1016 hPa | 0 mm | - | 0 W/m² | - |
| 1777976549 | 15° C | 99% | 1015.9 hPa | 0 mm | - | 0 W/m² | - |
| 1777976248 | 15° C | 99% | 1016 hPa | 0 mm | - | 0 W/m² | - |
| 1777975943 | 15° C | 99% | 1015.9 hPa | 0 mm | - | 0 W/m² | - |
* Rain latest hour (hover to see other rain measurements)
** Current wind speed in m/s (hover to see current wind gust speed)